MDT,Max TemperatureF,Mean TemperatureF,Min TemperatureF,Max Dew PointF,MeanDew PointF,Min DewpointF,Max Humidity, Mean Humidity, Min Humidity, Max Sea Level PressureIn, Mean Sea Level PressureIn, Min Sea Level PressureIn, Max VisibilityMiles, Mean VisibilityMiles, Min VisibilityMiles, Max Wind SpeedMPH, Mean Wind SpeedMPH, Max Gust SpeedMPH,PrecipitationIn, CloudCover, Events, WindDirDegrees
2012-9-1,75,60,45,49,39,22,83,53,23,30.00,29.89,29.81,10,10,9,10,7,12,0.01,4,Rain-Thunderstorm,199
2012-9-2,75,54,32,30,20,9,72,41,9,30.19,30.05,29.97,10,7,3,18,6,24,0.00,2,,212
2012-9-3,75,54,33,23,19,14,56,34,11,30.15,30.06,29.99,10,6,2,17,5,26,0.00,3,,263
2012-9-4,71,52,33,30,25,21,64,41,18,30.20,30.11,30.02,10,6,2,22,6,28,0.00,3,,5
2012-9-5,75,54,32,31,25,20,72,42,12,30.19,30.04,29.92,10,7,2,17,5,23,0.00,1,,311
2012-9-6,69,55,41,39,33,26,71,49,26,30.20,30.07,29.96,10,8,2,21,5,28,T,1,Rain,60
2012-9-7,75,54,32,39,29,18,89,51,12,30.32,30.27,30.21,10,10,8,10,4,14,0.00,0,,133
2012-9-8,80,57,33,32,25,19,69,40,11,30.34,30.22,30.09,10,10,8,13,4,17,0.00,0,,165
2012-9-9,84,60,35,34,27,21,54,33,11,30.16,29.93,29.78,10,8,5,29,5,40,T,1,,191
2012-9-10,73,56,39,37,28,19,65,40,14,29.98,29.85,29.78,7,4,2,24,7,39,0.00,6,,284
2012-9-11,60,46,32,31,20,8,76,44,12,30.24,30.07,29.91,10,9,6,18,7,23,0.00,0,,332
2012-9-12,63,44,24,21,16,12,57,36,15,30.43,30.36,30.25,10,9,6,14,5,20,0.00,0,,288
2012-9-13,78,52,26,24,18,12,63,36,9,30.51,30.41,30.30,10,8,4,8,3,14,0.00,0,,136
2012-9-14,80,55,30,20,15,4,58,32,5,30.34,30.23,30.11,10,8,5,18,4,25,0.00,2,,144
2012-9-15,77,56,34,28,18,12,51,31,11,30.24,30.16,30.06,7,3,2,13,5,17,0.00,5,,281
2012-9-16,62,50,38,44,35,26,85,62,39,30.21,30.16,30.10,10,8,6,14,3,16,0.02,2,Rain,165
2012-9-17,72,52,31,36,29,23,92,54,16,30.27,30.19,30.11,10,9,7,16,5,21,0.00,0,,109
2012-9-18,79,55,31,30,27,24,72,44,15,30.20,30.12,30.01,10,7,3,17,5,22,0.00,0,,336
2012-9-19,78,56,34,30,27,23,70,43,15,30.30,30.18,30.07,10,4,1,17,5,22,0.00,1,,62
2012-9-20,77,55,33,26,24,21,56,36,15,30.30,30.19,30.10,9,5,1,14,5,20,0.00,1,,174
2012-9-21,79,57,35,30,26,23,64,39,13,30.25,30.15,30.07,10,9,6,14,4,18,0.00,0,,141
2012-9-22,79,59,38,34,27,22,62,37,12,30.20,30.07,29.99,10,8,6,10,2,15,0.00,0,,139
2012-9-23,75,58,40,33,29,25,60,38,15,30.10,30.04,29.99,10,9,7,17,4,25,0.00,2,,135
2012-9-24,74,58,42,36,33,31,62,43,23,30.06,29.98,29.90,10,8,3,12,4,16,0.00,2,,298
2012-9-25,72,54,36,39,36,32,82,56,29,30.12,30.01,29.91,8,4,1,12,3,,0.00,0,,115
2012-9-26,72,53,34,39,35,31,82,54,25,30.17,30.06,29.99,10,8,4,9,3,12,0.00,0,,124
2012-9-27,75,55,34,40,34,31,82,53,23,30.17,30.10,30.02,9,8,6,12,3,13,0.00,0,,105
2012-9-28,75,55,34,39,32,27,82,50,17,30.12,30.03,29.93,10,8,2,14,2,18,T,1,,302
2012-9-29,70,57,44,45,39,34,83,55,27,30.17,30.08,29.99,10,10,10,17,4,23,T,3,Rain-Thunderstorm,162
2012-9-30,70,54,37,39,33,25,92,57,22,30.32,30.23,30.14,10,10,10,18,6,24,0.00,0,,331